W2KFV-2 Carle Place NY US current weather conditions

sailwx.info

Wind from 025 at 0 knots gusting 2

Air temperature 11.1° C
Dewpoint 10.2° C

Last reported at 2019-Oct-20 23:09 UTC.
Time now 2019-Oct-21 00:13 UTC

Location: N 40°45' W 073°37'.
View on Google Maps.

See reports from other nearby stations

  
Tides and Currents Weather Stations Pressure Air Temp Water Temp Dewpoint Dewpoint Depression Visibility Wind Speed Wind Dir Waves Ship Positions
date/time (UTC)wind fromknots sea level pressurealtimeterstation pressurevisibilityair tempwater tempwave heightnotes
2019-Oct-20 23:09 025 0 gusting 2 11.1
2019-Oct-20 22:59 036 1 gusting 6 11.1
2019-Oct-20 22:49 061 2 gusting 8 11.7
2019-Oct-20 22:39 068 1 gusting 5 11.7
2019-Oct-20 22:29 071 0 gusting 4 12.2
2019-Oct-20 22:19 134 0 gusting 2 12.2
2019-Oct-20 22:09 045 0 gusting 1 12.2
2019-Oct-20 21:59 014 1 gusting 4 12.2
2019-Oct-20 21:49 047 1 gusting 5 12.2
2019-Oct-20 21:29 040 1 gusting 5 12.8
2019-Oct-20 21:19 044 1 gusting 5 12.8
2019-Oct-20 21:09 034 0 gusting 2 12.8
2019-Oct-20 20:59 044 0 gusting 2 12.8
2019-Oct-20 20:49 058 1 gusting 2 13.3
2019-Oct-20 20:39 063 0 gusting 4 13.3
2019-Oct-20 20:29 057 0 gusting 4 13.3
2019-Oct-20 20:19 065 0 gusting 2 13.3
2019-Oct-20 20:09 077 13.9
2019-Oct-20 19:59 065 0 gusting 2 13.9
2019-Oct-20 19:49 061 13.9
2019-Oct-20 19:39 074 0 gusting 2 13.9
2019-Oct-20 19:29 064 14.4
2019-Oct-20 19:19 114 14.4
2019-Oct-20 19:09 115 14.4
2019-Oct-20 18:59 070 14.4
2019-Oct-20 18:49 070 14.4
2019-Oct-20 18:39 081 0 gusting 2 15.0
2019-Oct-20 18:29 105 0 gusting 2 15.0
2019-Oct-20 18:19 117 15.0
2019-Oct-20 18:09 113 0 gusting 2 15.6
2019-Oct-20 17:59 156 2 gusting 5 15.6
2019-Oct-20 17:49 144 1 gusting 5 15.6
2019-Oct-20 17:39 119 1 gusting 5 15.6
2019-Oct-20 17:29 124 2 gusting 5 15.6
2019-Oct-20 17:19 151 1 gusting 5 15.6
2019-Oct-20 17:09 168 2 gusting 5 15.6
2019-Oct-20 16:59 145 2 gusting 4 15.6
2019-Oct-20 16:49 137 2 gusting 6 15.6
2019-Oct-20 16:39 139 2 gusting 5 15.6
2019-Oct-20 16:29 143 3 gusting 6 15.6
2019-Oct-20 16:19 132 2 gusting 6 15.6
2019-Oct-20 16:09 131 3 gusting 6 15.6
2019-Oct-20 15:59 135 1 gusting 6 15.6
2019-Oct-20 15:49 108 2 gusting 6 15.0
2019-Oct-20 15:39 057 0 gusting 2 15.0
2019-Oct-20 15:29 116 1 gusting 2 14.4
2019-Oct-20 15:19 080 2 gusting 4 14.4
2019-Oct-20 15:09 078 1 gusting 4 14.4
2019-Oct-20 14:59 081 1 gusting 4 14.4
2019-Oct-20 14:49 131 1 gusting 4 14.4
2019-Oct-20 14:39 133 0 gusting 4 14.4
2019-Oct-20 14:29 043 0 gusting 4 13.9
2019-Oct-20 14:19 096 0 gusting 2 13.3
2019-Oct-20 14:09 104 12.8
2019-Oct-20 13:59 134 0 gusting 2 12.2
2019-Oct-20 13:49 064 0 gusting 1 11.7
2019-Oct-20 13:39 213 11.1
2019-Oct-20 13:29 213 10.6
2019-Oct-20 13:19 213 10.6
2019-Oct-20 13:09 213 9.4
2019-Oct-20 12:59 213 9.4
2019-Oct-20 12:49 213 8.9
2019-Oct-20 12:39 186 7.8
2019-Oct-20 12:29 186 6.1
2019-Oct-20 12:19 186 5.6
2019-Oct-20 12:09 186 5.0
2019-Oct-20 11:59 186 4.4
2019-Oct-20 11:49 186 4.4
2019-Oct-20 11:39 186 3.9
2019-Oct-20 11:29 186 3.9
2019-Oct-20 11:19 186 3.9
2019-Oct-20 11:09 186 3.9
2019-Oct-20 10:59 186 3.9
2019-Oct-20 10:49 186 3.9
2019-Oct-20 10:39 186 3.9
2019-Oct-20 10:29 186 3.3
2019-Oct-20 10:19 186 3.9
2019-Oct-20 10:09 186 3.9
2019-Oct-20 09:59 186 3.9
2019-Oct-20 09:49 186 3.9
2019-Oct-20 09:39 186 3.9
2019-Oct-20 09:29 186 3.9
2019-Oct-20 09:19 186 3.9
2019-Oct-20 09:09 186 3.9
2019-Oct-20 08:59 186 3.9
2019-Oct-20 08:49 186 3.9
2019-Oct-20 08:39 186 3.9
2019-Oct-20 08:29 186 3.9
2019-Oct-20 08:19 186 4.4
2019-Oct-20 08:09 186 4.4
2019-Oct-20 07:59 186 4.4
2019-Oct-20 07:49 186 4.4
2019-Oct-20 07:39 186 4.4
2019-Oct-20 07:29 186 4.4
2019-Oct-20 07:19 186 5.0
2019-Oct-20 07:09 186 5.0
2019-Oct-20 06:59 186 5.0
2019-Oct-20 06:49 186 5.0
2019-Oct-20 06:39 186 5.6
2019-Oct-20 06:29 186 5.6
2019-Oct-20 06:19 186 5.6
2019-Oct-20 06:09 186 5.6
2019-Oct-20 05:59 186 5.6
2019-Oct-20 05:49 186 5.6
2019-Oct-20 05:39 186 5.6
2019-Oct-20 05:29 186 6.1
2019-Oct-20 05:19 186 6.1
2019-Oct-20 05:09 186 6.1
2019-Oct-20 04:59 186 6.1
2019-Oct-20 04:49 186 6.1
2019-Oct-20 04:39 186 6.1
2019-Oct-20 04:29 186 6.7
2019-Oct-20 04:19 186 6.7
2019-Oct-20 04:09 186 6.7
2019-Oct-20 03:59 186 6.7
2019-Oct-20 03:49 186 6.7
2019-Oct-20 03:39 186 6.7
2019-Oct-20 03:29 186 6.7
2019-Oct-20 03:19 186 7.2
2019-Oct-20 03:09 186 7.2
2019-Oct-20 02:59 186 7.2
2019-Oct-20 02:49 186 7.2
2019-Oct-20 02:39 186 7.8
2019-Oct-20 02:29 186 7.8
2019-Oct-20 02:19 186 7.8
2019-Oct-20 02:09 186 7.8
2019-Oct-20 01:59 186 7.8
2019-Oct-20 01:49 186 7.8
2019-Oct-20 01:39 186 8.3
2019-Oct-20 01:29 186 8.3
2019-Oct-20 01:19 186 8.3
2019-Oct-20 01:09 186 8.9
2019-Oct-20 00:59 186 8.9
2019-Oct-20 00:49 186 8.9
2019-Oct-20 00:39 186 9.4
2019-Oct-20 00:29 186 9.4
2019-Oct-20 00:19 186 10.0
2019-Oct-20 00:09 186 10.0
2019-Oct-19 23:59 186 10.6
2019-Oct-19 23:49 186 11.1
2019-Oct-19 23:39 186 11.7
2019-Oct-19 23:29 186 11.7
2019-Oct-19 23:19 200 12.2
2019-Oct-19 23:09 152 12.2
2019-Oct-19 22:59 148 0 gusting 2 12.2
2019-Oct-19 22:49 203 0 gusting 2 12.2
2019-Oct-19 22:39 188 12.2
2019-Oct-19 22:29 200 0 gusting 2 12.2
2019-Oct-19 22:19 188 0 gusting 2 12.8
2019-Oct-19 22:09 172 12.8
2019-Oct-19 21:59 188 1 gusting 6 12.8
2019-Oct-19 21:49 184 3 gusting 6 13.3
2019-Oct-19 21:39 192 1 gusting 5 13.9
2019-Oct-19 21:29 180 0 gusting 4 14.4
2019-Oct-19 21:19 237 0 gusting 5 15.0
2019-Oct-19 21:09 186 1 gusting 6 15.0
2019-Oct-19 20:59 200 0 gusting 6 15.0
2019-Oct-19 20:49 141 2 gusting 6 15.0
2019-Oct-19 20:39 217 1 gusting 6 15.0
2019-Oct-19 20:29 223 1 gusting 5 15.0
2019-Oct-19 20:19 218 1 gusting 6 15.0
2019-Oct-19 20:09 189 1 gusting 6 15.6
2019-Oct-19 19:59 185 2 gusting 5 15.0
2019-Oct-19 19:49 288 2 gusting 6 14.4
2019-Oct-19 19:39 288 1 gusting 6 15.0
2019-Oct-19 19:29 213 2 gusting 7 15.0
2019-Oct-19 19:19 193 4 gusting 8 15.0
2019-Oct-19 19:09 176 0 gusting 5 15.0
2019-Oct-19 18:59 254 2 gusting 6 14.4
2019-Oct-19 18:49 283 2 gusting 6 14.4
2019-Oct-19 18:39 186 1 gusting 7 14.4
2019-Oct-19 18:29 196 1 gusting 6 14.4
2019-Oct-19 18:19 257 1 gusting 4 13.9
2019-Oct-19 18:09 187 1 gusting 5 14.4
2019-Oct-19 17:59 194 1 gusting 6 13.9
2019-Oct-19 17:49 254 2 gusting 6 14.4
2019-Oct-19 17:39 202 0 gusting 5 14.4
2019-Oct-19 17:29 159 2 gusting 7 13.9
2019-Oct-19 17:19 189 2 gusting 6 14.4
2019-Oct-19 17:09 262 0 gusting 6 13.9
2019-Oct-19 16:59 266 2 gusting 6 12.8
2019-Oct-19 16:49 288 3 gusting 8 12.8
2019-Oct-19 16:39 211 1 gusting 6 13.9
2019-Oct-19 16:29 161 1 gusting 5 13.3
2019-Oct-19 16:19 155 0 gusting 6 12.8
2019-Oct-19 16:09 184 1 gusting 4 13.3
2019-Oct-19 15:59 269 0 gusting 2 13.3
2019-Oct-19 15:49 207 0 gusting 2 12.8
2019-Oct-19 15:39 13.3
2019-Oct-19 15:29 235 0 gusting 2 12.2
2019-Oct-19 15:19 284 2 gusting 5 11.7
2019-Oct-19 15:09 039 0 gusting 2 12.2
2019-Oct-19 14:59 068 0 gusting 2 12.2
2019-Oct-19 14:49 029 0 gusting 4 12.2
2019-Oct-19 14:39 159 11.7
2019-Oct-19 14:29 249 11.7
2019-Oct-19 14:19 250 11.1
2019-Oct-19 14:09 199 10.6
2019-Oct-19 13:59 265 0 gusting 4 10.0
2019-Oct-19 13:49 294 2 gusting 5 10.0
2019-Oct-19 13:39 280 2 gusting 5 10.0
2019-Oct-19 13:29 300 0 gusting 4 10.0
2019-Oct-19 13:19 293 9.4
2019-Oct-19 13:09 253 0 gusting 5 8.9
2019-Oct-19 12:59 264 1 gusting 4 8.9
2019-Oct-19 12:49 260 0 gusting 2 8.3
2019-Oct-19 12:39 283 0 gusting 2 7.2
2019-Oct-19 12:29 265 6.1
2019-Oct-19 12:19 328 5.0
2019-Oct-19 12:09 354 4.4
2019-Oct-19 11:59 354 3.3
2019-Oct-19 11:49 354 2.8
2019-Oct-19 11:39 354 2.8
2019-Oct-19 11:29 354 2.8
2019-Oct-19 11:19 354 2.2
2019-Oct-19 11:09 354 2.2
2019-Oct-19 10:59 354 2.2
2019-Oct-19 10:49 354 2.2
2019-Oct-19 10:39 354 1.7
2019-Oct-19 10:29 354 1.7
2019-Oct-19 10:19 354 1.7
2019-Oct-19 10:09 354 2.2
2019-Oct-19 09:59 354 2.2
2019-Oct-19 09:49 354 2.8
2019-Oct-19 09:39 354 2.2
2019-Oct-19 09:29 354 2.2
2019-Oct-19 09:19 354 2.2
2019-Oct-19 09:09 354 2.8
2019-Oct-19 08:59 354 2.8
2019-Oct-19 08:49 354 2.8
2019-Oct-19 08:39 354 2.8
2019-Oct-19 08:29 354 2.8
2019-Oct-19 08:19 354 2.8
2019-Oct-19 08:09 354 3.3
2019-Oct-19 07:59 354 3.3
2019-Oct-19 07:49 354 3.3
2019-Oct-19 07:39 354 3.9
2019-Oct-19 07:29 354 3.9
2019-Oct-19 07:19 354 3.9
2019-Oct-19 07:09 354 4.4
2019-Oct-19 06:59 354 4.4
2019-Oct-19 06:49 354 4.4
2019-Oct-19 06:39 354 5.0
2019-Oct-19 06:29 354 5.6
2019-Oct-19 06:19 354 5.6
2019-Oct-19 06:09 354 6.1
2019-Oct-19 05:59 354 6.1
2019-Oct-19 05:49 354 6.1
2019-Oct-19 05:39 354 6.7
2019-Oct-19 05:29 307 6.7
2019-Oct-19 05:19 260 6.7
2019-Oct-19 05:09 284 6.7
2019-Oct-19 04:59 284 7.2
2019-Oct-19 04:49 283 7.2
2019-Oct-19 04:39 283 7.8
2019-Oct-19 04:29 278 0 gusting 2 7.8
2019-Oct-19 04:19 305 0 gusting 2 7.8
2019-Oct-19 04:09 290 7.8
2019-Oct-19 03:59 343 7.8
2019-Oct-19 03:49 343 0 gusting 4 7.8
2019-Oct-19 03:39 295 1 gusting 4 7.8
2019-Oct-19 03:29 265 0 gusting 4 7.8
2019-Oct-19 03:19 300 0 gusting 2 7.8
2019-Oct-19 03:09 295 0 gusting 2 7.8
2019-Oct-19 02:59 286 0 gusting 2 8.3
2019-Oct-19 02:49 271 0 gusting 2 8.3
2019-Oct-19 02:39 307 8.3
2019-Oct-19 02:29 307 8.3
2019-Oct-19 02:19 325 8.9
2019-Oct-19 02:09 251 0 gusting 2 8.9
2019-Oct-19 01:59 287 0 gusting 2 8.9
2019-Oct-19 01:49 296 0 gusting 5 8.9
2019-Oct-19 01:39 305 8.9
2019-Oct-19 01:29 244 0 gusting 4 8.9
2019-Oct-19 01:19 302 9.4
2019-Oct-19 01:09 334 0 gusting 2 9.4
2019-Oct-19 00:59 237 9.4
2019-Oct-19 00:49 291 1 gusting 5 9.4
2019-Oct-19 00:39 305 0 gusting 5 10.0
2019-Oct-19 00:29 320 1 gusting 7 10.0
2019-Oct-19 00:19 302 2 gusting 6 10.0
2019-Oct-19 00:09 287 1 gusting 6 10.6